Погода в Танджине

Южная Корея     36°53′38″N   126°37′50″E
темп.,
°C
ветер,
м/с
пор.,
м/с
влажн.,
%
обл.,
%
осадки,
мм/ч
давл.,
гПа
погр.,
м
9 мая, вс
вс900:00+11зсз59780 0.0 1007165
03:00+10зюз46780 0.0 1008108
06:00+10юз46720 0.0 1009114
09:00+14з712600 0.0 1010374
12:00+14зсз711610 0.0 1011387
15:00+14з710570 0.0 1011322
18:00+13з610604 0.0 1011181
21:00+12зюз34665 0.0 101242
10 мая, пн
пн1000:00+12ю335728 0.0 101218
03:00+11вюв2256100 0.0 101311
06:00+12ссв2255100 0.0 101516
09:00+10всв4692100 5.4 1016248
12:00+10всв61187100 6.1 1015491
15:00+9в61090100 15.0 1014544
18:00+10в6990100 10.3 1014358
21:00+10в5891100 10.9 1015234
11 мая, вт
вт1100:00+10в5790100 0.1 1015194
03:00+10в5790100 0.3 1014160
06:00+10в6886100 0.0 1014184
09:00+13в587296 0.0 1014202
12:00+18вюв710515 0.0 1014427
15:00+20вюв694670 0.0 1012525
18:00+19вюв4657100 0.0 101279
21:00+16вюв61054100 0.0 1013189
12 мая, ср
ср1200:00+14в585899 0.0 1013109
03:00+13в596198 0.0 1013120
06:00+12в5964100 0.0 1013134
09:00+15вюв696092 0.0 1013246
12:00+19вюв575830 0.0 1012363
15:00+21вюв345645 0.0 1010488
18:00+21вюв126241 0.0 1009292
21:00+16ссз22720 0.0 101115
13 мая, чт
чт1300:00+16св11740 0.0 101112
03:00+15в33796 0.0 101123
06:00+15в348483 0.0 101139
09:00+18в4474100 0.0 1011187
12:00+21всв2364100 0.0 1011419
15:00+20сз5469100 0.0 1010138
18:00+18сз4668100 0.0 100966
21:00+17зсз12710 0.0 101012